Time,TemperatureF,DewpointF,PressureIn,WindDirection,WindDirectionDegrees,WindSpeedMPH,WindSpeedGustMPH,Humidity,HourlyPrecipIn,Conditions,Clouds,dailyrainin,SoftwareType,DateUTC
2013-09-05 00:00:00,65.7,63.3,29.94,NW,311,0.9,2.3,92,0.00,BKN,,0.02,WeatherDisplay:10.37,2013-09-05 04:00:00,
2013-09-05 00:01:00,65.7,63.3,29.94,NW,311,0.2,2.3,92,0.00,RA,,0.00,WeatherDisplay:10.37,2013-09-05 04:01:00,
2013-09-05 00:02:00,65.7,63.3,29.94,NW,311,0.0,2.3,92,0.00,RA,,0.00,WeatherDisplay:10.37,2013-09-05 04:02:00,
2013-09-05 00:07:00,65.7,63.3,29.94,NW,311,0.7,2.3,92,0.00,RA,,0.00,WeatherDisplay:10.37,2013-09-05 04:07:00,
2013-09-05 00:12:00,65.6,63.2,29.94,NW,311,0.9,3.5,92,0.00,BKN,,0.00,WeatherDisplay:10.37,2013-09-05 04:12:00,
2013-09-05 00:17:00,65.5,63.1,29.94,NW,311,0.9,3.5,92,0.00,BKN,,0.00,WeatherDisplay:10.37,2013-09-05 04:17:00,
2013-09-05 00:22:00,65.4,63.0,29.94,NW,309,1.8,5.8,92,0.00,BKN,,0.00,WeatherDisplay:10.37,2013-09-05 04:22:00,
2013-09-05 00:27:00,65.0,62.3,29.94,North,5,4.7,11.5,91,0.00,BKN,,0.00,WeatherDisplay:10.37,2013-09-05 04:27:00,
2013-09-05 00:32:00,64.2,61.5,29.94,North,351,2.5,4.6,91,0.00,BKN,,0.00,WeatherDisplay:10.37,2013-09-05 04:32:00,
2013-09-05 00:37:00,63.6,60.9,29.94,North,10,3.1,6.9,91,0.00,BKN,,0.00,WeatherDisplay:10.37,2013-09-05 04:37:00,
2013-09-05 00:42:00,63.0,60.0,29.94,NNW,339,4.8,6.9,90,0.00,BKN,,0.00,WeatherDisplay:10.37,2013-09-05 04:42:00,
2013-09-05 00:47:00,62.7,59.7,29.94,North,355,4.2,6.9,90,0.00,BKN,,0.00,WeatherDisplay:10.37,2013-09-05 04:47:00,
2013-09-05 00:52:00,62.5,59.5,29.94,North,9,2.8,5.8,90,0.00,BKN,,0.00,WeatherDisplay:10.37,2013-09-05 04:52:00,
2013-09-05 00:57:00,62.4,59.7,29.95,NNW,346,2.3,3.5,91,0.00,BKN,,0.00,WeatherDisplay:10.37,2013-09-05 04:57:00,
2013-09-05 01:02:00,62.3,59.6,29.95,North,11,1.1,5.8,91,0.00,BKN,,0.00,WeatherDisplay:10.37,2013-09-05 05:02:00,
2013-09-05 01:07:00,62.3,59.6,29.95,NNW,329,1.6,3.5,91,0.00,BKN,,0.00,WeatherDisplay:10.37,2013-09-05 05:07:00,
2013-09-05 01:12:00,62.1,59.4,29.96,North,355,0.3,4.0,91,0.00,BKN,,0.00,WeatherDisplay:10.37,2013-09-05 05:12:00,
2013-09-05 01:17:00,61.9,59.2,29.95,NNE,21,0.2,3.5,91,0.00,BKN,,0.00,WeatherDisplay:10.37,2013-09-05 05:17:00,
2013-09-05 01:22:00,61.7,59.0,29.96,NNE,21,0.0,0.0,91,0.00,BKN,,0.00,WeatherDisplay:10.37,2013-09-05 05:22:00,
2013-09-05 01:27:00,61.5,58.8,29.96,NNW,334,4.1,4.1,91,0.00,BKN,,0.00,WeatherDisplay:10.37,2013-09-05 05:27:00,
2013-09-05 01:32:00,61.3,58.7,29.96,NNW,344,1.0,3.0,91,0.00,BKN,,0.00,WeatherDisplay:10.37,2013-09-05 05:32:00,
2013-09-05 01:37:00,61.2,58.6,29.96,NNW,346,2.9,6.9,91,0.00,BKN,,0.00,WeatherDisplay:10.37,2013-09-05 05:37:00,
2013-09-05 01:42:00,61.2,58.6,29.96,NNW,327,4.9,9.2,91,0.00,BKN,,0.00,WeatherDisplay:10.37,2013-09-05 05:42:00,
2013-09-05 01:47:00,61.2,58.6,29.96,NNW,334,1.0,5.0,91,0.00,BKN,,0.00,WeatherDisplay:10.37,2013-09-05 05:47:00,
2013-09-05 01:52:00,61.0,58.0,29.96,NW,322,3.4,3.5,90,0.00,SCT,,0.00,WeatherDisplay:10.37,2013-09-05 05:52:00,
2013-09-05 01:57:00,60.8,57.8,29.96,NNW,329,3.3,4.6,90,0.00,SCT,,0.00,WeatherDisplay:10.37,2013-09-05 05:57:00,
2013-09-05 02:02:00,60.5,57.6,29.96,NNW,329,1.3,2.3,90,0.00,FEW,,0.00,WeatherDisplay:10.37,2013-09-05 06:02:00,
2013-09-05 02:07:00,60.3,57.0,29.96,NW,326,1.1,5.8,89,0.00,FEW,,0.00,WeatherDisplay:10.37,2013-09-05 06:07:00,
2013-09-05 02:12:00,60.1,56.8,29.96,NW,326,0.7,3.5,89,0.00,FEW,,0.00,WeatherDisplay:10.37,2013-09-05 06:12:00,
2013-09-05 02:17:00,59.8,56.6,29.96,NNW,328,0.6,3.5,89,0.00,FEW,,0.00,WeatherDisplay:10.37,2013-09-05 06:17:00,
2013-09-05 02:22:00,59.5,56.3,29.97,NNW,327,0.0,0.0,89,0.00,FEW,,0.00,WeatherDisplay:10.37,2013-09-05 06:22:00,
2013-09-05 02:27:00,59.2,56.0,29.96,NNW,327,0.0,0.0,89,0.00,FEW,,0.00,WeatherDisplay:10.37,2013-09-05 06:27:00,
2013-09-05 02:32:00,59.0,55.8,29.97,NNW,328,0.1,1.2,89,0.00,FEW,,0.00,WeatherDisplay:10.37,2013-09-05 06:32:00,
2013-09-05 02:37:00,59.0,55.8,29.97,NNW,328,0.3,0.0,89,0.00,FEW,,0.00,WeatherDisplay:10.37,2013-09-05 06:37:00,
2013-09-05 02:42:00,58.7,55.5,29.97,NNW,328,0.6,3.5,89,0.00,FEW,,0.00,WeatherDisplay:10.37,2013-09-05 06:42:00,
2013-09-05 02:47:00,58.4,55.2,29.98,NNW,328,2.1,3.5,89,0.00,FEW,,0.00,WeatherDisplay:10.37,2013-09-05 06:47:00,
2013-09-05 02:52:00,58.1,54.9,29.97,NNW,327,0.0,0.0,89,0.00,FEW,,0.00,WeatherDisplay:10.37,2013-09-05 06:52:00,
2013-09-05 02:57:00,57.9,55.0,29.97,NNW,328,0.0,1.2,90,0.00,FEW,,0.00,WeatherDisplay:10.37,2013-09-05 06:57:00,
2013-09-05 03:02:00,57.7,54.8,29.97,NNW,328,0.0,0.0,90,0.00,CLR,,0.00,WeatherDisplay:10.37,2013-09-05 07:02:00,
2013-09-05 03:07:00,57.5,55.2,29.97,NNW,328,0.0,0.0,92,0.00,CLR,,0.00,WeatherDisplay:10.37,2013-09-05 07:07:00,
2013-09-05 03:12:00,57.3,54.4,29.97,NNW,328,0.0,0.0,90,0.00,CLR,,0.00,WeatherDisplay:10.37,2013-09-05 07:12:00,
2013-09-05 03:17:00,57.1,54.2,29.98,NNW,328,0.0,0.0,90,0.00,CLR,,0.00,WeatherDisplay:10.37,2013-09-05 07:17:00,
2013-09-05 03:22:00,56.8,53.9,29.98,NNW,328,0.0,0.0,90,0.00,CLR,,0.00,WeatherDisplay:10.37,2013-09-05 07:22:00,
2013-09-05 03:27:00,56.6,53.7,29.98,NNW,327,0.0,0.0,90,0.00,CLR,,0.00,WeatherDisplay:10.37,2013-09-05 07:27:00,
2013-09-05 03:32:00,56.4,53.5,29.98,NNW,327,0.0,0.0,90,0.00,CLR,,0.00,WeatherDisplay:10.37,2013-09-05 07:32:00,
2013-09-05 03:37:00,56.1,53.2,29.98,NNW,328,0.0,0.0,90,0.00,CLR,,0.00,WeatherDisplay:10.37,2013-09-05 07:37:00,
2013-09-05 03:42:00,56.0,53.1,29.98,NNW,328,0.0,0.0,90,0.00,CLR,,0.00,WeatherDisplay:10.37,2013-09-05 07:42:00,
2013-09-05 03:47:00,55.8,52.9,29.98,NNW,328,0.0,0.0,90,0.00,CLR,,0.00,WeatherDisplay:10.37,2013-09-05 07:47:00,
2013-09-05 03:52:00,55.7,53.1,29.98,NNW,328,0.0,0.0,91,0.00,CLR,,0.00,WeatherDisplay:10.37,2013-09-05 07:52:00,
2013-09-05 03:57:00,55.6,53.0,29.99,NNW,327,0.0,0.0,91,0.00,CLR,,0.00,WeatherDisplay:10.37,2013-09-05 07:57:00,
2013-09-05 04:02:00,55.4,52.8,29.99,NNW,327,0.0,0.0,91,0.00,CLR,,0.00,WeatherDisplay:10.37,2013-09-05 08:02:00,
2013-09-05 04:07:00,55.3,52.7,29.99,NNW,327,0.0,0.0,91,0.00,CLR,,0.00,WeatherDisplay:10.37,2013-09-05 08:07:00,
2013-09-05 04:12:00,55.1,52.5,29.99,NNW,328,0.0,0.0,91,0.00,CLR,,0.00,WeatherDisplay:10.37,2013-09-05 08:12:00,
2013-09-05 04:17:00,54.9,52.6,30.00,NNW,327,0.0,0.0,92,0.00,CLR,,0.00,WeatherDisplay:10.37,2013-09-05 08:17:00,
2013-09-05 04:22:00,54.5,51.9,30.00,NNW,328,0.0,0.0,91,0.00,CLR,,0.00,WeatherDisplay:10.37,2013-09-05 08:22:00,
2013-09-05 04:27:00,54.4,52.1,30.00,NNW,328,0.0,0.0,92,0.00,CLR,,0.00,WeatherDisplay:10.37,2013-09-05 08:27:00,
2013-09-05 04:32:00,54.4,52.1,30.00,NNW,328,0.0,0.0,92,0.00,CLR,,0.00,WeatherDisplay:10.37,2013-09-05 08:32:00,
2013-09-05 04:37:00,54.3,52.0,30.00,NNW,328,0.0,0.0,92,0.00,CLR,,0.00,WeatherDisplay:10.37,2013-09-05 08:37:00,
2013-09-05 04:42:00,54.2,51.9,30.00,NNW,328,0.0,0.0,92,0.00,CLR,,0.00,WeatherDisplay:10.37,2013-09-05 08:42:00,
2013-09-05 04:47:00,54.2,51.9,30.00,NNW,327,0.0,0.0,92,0.00,CLR,,0.00,WeatherDisplay:10.37,2013-09-05 08:47:00,
2013-09-05 04:52:00,54.0,51.7,30.00,NNW,328,0.0,0.0,92,0.00,CLR,,0.00,WeatherDisplay:10.37,2013-09-05 08:52:00,
2013-09-05 04:57:00,53.9,51.6,30.00,NNW,328,0.0,0.0,92,0.00,CLR,,0.00,WeatherDisplay:10.37,2013-09-05 08:57:00,
2013-09-05 05:02:00,53.7,51.4,30.01,NNW,328,0.0,0.0,92,0.00,CLR,,0.00,WeatherDisplay:10.37,2013-09-05 09:02:00,
2013-09-05 05:07:00,53.5,51.2,30.01,NNW,327,0.0,0.0,92,0.00,CLR,,0.00,WeatherDisplay:10.37,2013-09-05 09:07:00,
2013-09-05 05:12:00,53.3,51.3,30.01,NNW,328,0.0,0.0,93,0.00,CLR,,0.00,WeatherDisplay:10.37,2013-09-05 09:12:00,
2013-09-05 05:17:00,53.3,51.3,30.02,NNW,328,0.0,0.0,93,0.00,CLR,,0.00,WeatherDisplay:10.37,2013-09-05 09:17:00,
2013-09-05 05:22:00,53.4,51.4,30.02,NNW,328,0.0,0.0,93,0.00,CLR,,0.00,WeatherDisplay:10.37,2013-09-05 09:22:00,
2013-09-05 05:27:00,53.3,51.3,30.02,NNW,327,0.0,0.0,93,0.00,CLR,,0.00,WeatherDisplay:10.37,2013-09-05 09:27:00,
2013-09-05 05:32:00,53.3,51.3,30.02,NNW,328,0.0,0.0,93,0.00,CLR,,0.00,WeatherDisplay:10.37,2013-09-05 09:32:00,
2013-09-05 05:37:00,53.2,51.2,30.02,NNW,328,0.0,0.0,93,0.00,CLR,,0.00,WeatherDisplay:10.37,2013-09-05 09:37:00,
2013-09-05 05:42:00,53.0,51.0,30.02,NNW,328,0.0,0.0,93,0.00,CLR,,0.00,WeatherDisplay:10.37,2013-09-05 09:42:00,
2013-09-05 05:47:00,53.0,51.0,30.02,NNW,328,0.0,0.0,93,0.00,CLR,,0.00,WeatherDisplay:10.37,2013-09-05 09:47:00,
2013-09-05 05:52:00,53.1,51.1,30.02,NNW,328,0.0,0.0,93,0.00,CLR,,0.00,WeatherDisplay:10.37,2013-09-05 09:52:00,
2013-09-05 05:57:00,53.1,51.1,30.02,NNW,327,0.0,0.0,93,0.00,CLR,,0.00,WeatherDisplay:10.37,2013-09-05 09:57:00,
2013-09-05 06:02:00,53.0,51.0,30.02,NNW,328,0.0,0.0,93,0.00,CLR,,0.00,WeatherDisplay:10.37,2013-09-05 10:02:00,
2013-09-05 06:07:00,53.0,51.0,30.02,NNW,328,0.0,0.0,93,0.00,CLR,,0.00,WeatherDisplay:10.37,2013-09-05 10:07:00,
2013-09-05 06:12:00,53.0,51.0,30.03,NNW,327,0.0,0.0,93,0.00,CLR,,0.00,WeatherDisplay:10.37,2013-09-05 10:12:00,
2013-09-05 06:17:00,53.0,51.0,30.03,NNW,328,0.0,0.0,93,0.00,CLR,,0.00,WeatherDisplay:10.37,2013-09-05 10:17:00,
2013-09-05 06:23:00,53.0,51.0,30.03,NNW,327,0.0,0.0,93,0.00,CLR,,0.00,WeatherDisplay:10.37,2013-09-05 10:23:00,
2013-09-05 06:28:00,52.9,50.9,30.03,NNW,327,0.0,0.0,93,0.00,CLR,,0.00,WeatherDisplay:10.37,2013-09-05 10:28:00,
2013-09-05 06:33:00,52.8,50.8,30.03,NNW,328,0.0,0.0,93,0.00,CLR,,0.00,WeatherDisplay:10.37,2013-09-05 10:33:00,
2013-09-05 06:38:00,52.7,50.7,30.03,NNW,328,0.0,0.0,93,0.00,CLR,,0.00,WeatherDisplay:10.37,2013-09-05 10:38:00,
2013-09-05 06:43:00,52.6,50.6,30.04,NNW,327,0.0,0.0,93,0.00,CLR,,0.00,WeatherDisplay:10.37,2013-09-05 10:43:00,
2013-09-05 06:48:00,52.5,50.5,30.04,NNW,328,0.0,0.0,93,0.00,CLR,,0.00,WeatherDisplay:10.37,2013-09-05 10:48:00,
2013-09-05 06:53:00,52.5,50.5,30.04,NNW,327,0.0,0.0,93,0.00,CLR,,0.00,WeatherDisplay:10.37,2013-09-05 10:53:00,
2013-09-05 06:58:00,52.4,50.4,30.04,NNW,327,0.0,0.0,93,0.00,CLR,,0.00,WeatherDisplay:10.37,2013-09-05 10:58:00,
2013-09-05 07:03:00,52.4,50.4,30.04,NNW,328,0.0,0.0,93,0.00,CLR,,0.00,WeatherDisplay:10.37,2013-09-05 11:03:00,
2013-09-05 07:08:00,52.3,50.3,30.04,NNW,327,0.0,0.0,93,0.00,CLR,,0.00,WeatherDisplay:10.37,2013-09-05 11:08:00,
2013-09-05 07:13:00,52.3,50.3,30.05,NNW,328,0.0,0.0,93,0.00,BKN,,0.00,WeatherDisplay:10.37,2013-09-05 11:13:00,
2013-09-05 07:18:00,52.3,50.3,30.05,NNW,327,0.0,0.0,93,0.00,BKN,,0.00,WeatherDisplay:10.37,2013-09-05 11:18:00,
2013-09-05 07:23:00,52.5,50.5,30.04,NNW,327,0.0,0.0,93,0.00,BKN,,0.00,WeatherDisplay:10.37,2013-09-05 11:23:00,
2013-09-05 07:28:00,52.6,50.6,30.04,NNW,327,0.0,0.0,93,0.00,BKN,,0.00,WeatherDisplay:10.37,2013-09-05 11:28:00,
2013-09-05 07:33:00,52.9,50.9,30.05,NNW,328,0.0,0.0,93,0.00,BKN,,0.00,WeatherDisplay:10.37,2013-09-05 11:33:00,
2013-09-05 07:38:00,53.2,51.2,30.05,NNW,328,0.0,0.0,93,0.00,BKN,,0.00,WeatherDisplay:10.37,2013-09-05 11:38:00,
2013-09-05 07:43:00,53.4,51.5,30.05,NNW,328,0.0,0.0,93,0.00,BKN,,0.00,WeatherDisplay:10.37,2013-09-05 11:43:00,
2013-09-05 07:48:00,53.7,51.7,30.05,NNW,327,0.0,0.0,93,0.00,BKN,,0.00,WeatherDisplay:10.37,2013-09-05 11:48:00,
2013-09-05 07:53:00,54.1,52.1,30.06,NNW,328,0.0,0.0,93,0.00,BKN,,0.00,WeatherDisplay:10.37,2013-09-05 11:53:00,
2013-09-05 07:58:00,54.6,52.6,30.06,NNW,328,0.0,0.0,93,0.00,BKN,,0.00,WeatherDisplay:10.37,2013-09-05 11:58:00,
2013-09-05 08:03:00,55.0,53.0,30.06,NNW,327,0.1,2.3,93,0.00,BKN,,0.00,WeatherDisplay:10.37,2013-09-05 12:03:00,
2013-09-05 08:08:00,55.5,53.5,30.07,NNW,328,0.0,2.3,93,0.00,BKN,,0.00,WeatherDisplay:10.37,2013-09-05 12:08:00,
2013-09-05 08:13:00,56.0,54.0,30.07,NNW,328,0.0,2.0,93,0.00,BKN,,0.00,WeatherDisplay:10.37,2013-09-05 12:13:00,
2013-09-05 08:18:00,56.7,54.7,30.07,NNW,328,1.0,3.0,93,0.00,BKN,,0.00,WeatherDisplay:10.37,2013-09-05 12:18:00,
2013-09-05 08:23:00,57.2,55.2,30.07,West,280,2.0,3.5,93,0.00,BKN,,0.00,WeatherDisplay:10.37,2013-09-05 12:23:00,
2013-09-05 08:28:00,57.4,55.4,30.07,West,280,2.0,3.0,93,0.00,BKN,,0.00,WeatherDisplay:10.37,2013-09-05 12:28:00,
2013-09-05 08:33:00,57.8,55.8,30.07,West,279,0.5,3.5,93,0.00,BKN,,0.00,WeatherDisplay:10.37,2013-09-05 12:33:00,
2013-09-05 08:38:00,58.3,56.3,30.07,West,279,3.0,5.0,93,0.00,BKN,,0.00,WeatherDisplay:10.37,2013-09-05 12:38:00,
2013-09-05 08:43:00,58.7,56.6,30.07,West,276,3.0,7.0,93,0.00,BKN,,0.00,WeatherDisplay:10.37,2013-09-05 12:43:00,
2013-09-05 08:48:00,59.0,57.0,30.07,West,274,3.0,6.0,93,0.00,BKN,,0.00,WeatherDisplay:10.37,2013-09-05 12:48:00,
2013-09-05 08:53:00,59.0,57.0,30.07,West,275,3.7,4.6,93,0.00,BKN,,0.00,WeatherDisplay:10.37,2013-09-05 12:53:00,
2013-09-05 08:58:00,59.5,57.4,30.07,West,274,3.0,6.0,93,0.00,BKN,,0.00,WeatherDisplay:10.37,2013-09-05 12:58:00,
2013-09-05 09:03:00,60.0,58.0,30.08,WNW,288,2.0,7.0,93,0.00,BKN,,0.00,WeatherDisplay:10.37,2013-09-05 13:03:00,
2013-09-05 09:08:00,60.3,58.3,30.08,West,279,2.2,4.0,93,0.00,BKN,,0.00,WeatherDisplay:10.37,2013-09-05 13:08:00,
2013-09-05 09:13:00,60.4,57.8,30.08,West,271,4.1,5.8,91,0.00,BKN,,0.00,WeatherDisplay:10.37,2013-09-05 13:13:00,
2013-09-05 09:18:00,59.8,56.6,30.08,West,259,4.0,5.8,89,0.00,BKN,,0.00,WeatherDisplay:10.37,2013-09-05 13:18:00,
2013-09-05 09:23:00,59.7,56.1,30.08,West,279,4.3,5.8,88,0.00,BKN,,0.00,WeatherDisplay:10.37,2013-09-05 13:23:00,
2013-09-05 09:28:00,60.0,56.1,30.08,West,267,5.2,9.2,87,0.00,BKN,,0.00,WeatherDisplay:10.37,2013-09-05 13:28:00,
2013-09-05 09:33:00,60.4,56.2,30.08,West,269,5.8,8.1,86,0.00,BKN,,0.00,WeatherDisplay:10.37,2013-09-05 13:33:00,
2013-09-05 09:38:00,60.7,56.2,30.08,WNW,294,4.5,6.9,85,0.00,BKN,,0.00,WeatherDisplay:10.37,2013-09-05 13:38:00,
2013-09-05 09:43:00,60.7,55.8,30.09,WNW,286,3.4,5.8,84,0.00,BKN,,0.00,WeatherDisplay:10.37,2013-09-05 13:43:00,
2013-09-05 09:48:00,61.2,56.7,30.09,West,281,3.5,4.6,85,0.00,BKN,,0.00,WeatherDisplay:10.37,2013-09-05 13:48:00,
2013-09-05 09:53:00,61.1,55.6,30.09,WNW,303,8.5,11.5,82,0.00,BKN,,0.00,WeatherDisplay:10.37,2013-09-05 13:53:00,
2013-09-05 09:58:00,60.9,55.4,30.09,WNW,299,5.8,9.2,82,0.00,BKN,,0.00,WeatherDisplay:10.37,2013-09-05 13:58:00,
2013-09-05 10:03:00,61.0,55.8,30.09,WNW,296,2.9,5.8,83,0.00,BKN,,0.00,WeatherDisplay:10.37,2013-09-05 14:03:00,
2013-09-05 10:08:00,61.5,56.6,30.09,NNW,328,4.8,8.1,84,0.00,BKN,,0.00,WeatherDisplay:10.37,2013-09-05 14:08:00,
2013-09-05 10:13:00,61.5,56.0,30.09,NNW,338,5.8,9.2,82,0.00,BKN,,0.00,WeatherDisplay:10.37,2013-09-05 14:13:00,
2013-09-05 10:18:00,61.1,55.6,30.09,North,360,5.5,11.5,82,0.00,BKN,,0.00,WeatherDisplay:10.37,2013-09-05 14:18:00,
2013-09-05 10:23:00,61.2,56.0,30.10,North,9,4.2,8.1,83,0.00,BKN,,0.00,WeatherDisplay:10.37,2013-09-05 14:23:00,
2013-09-05 10:28:00,61.1,55.2,30.10,NNW,340,8.0,13.8,81,0.00,BKN,,0.00,WeatherDisplay:10.37,2013-09-05 14:28:00,
2013-09-05 10:33:00,61.3,55.1,30.10,North,11,5.7,9.2,80,0.00,BKN,,0.00,WeatherDisplay:10.37,2013-09-05 14:33:00,
2013-09-05 10:38:00,61.1,54.9,30.10,NNE,25,4.0,6.9,80,0.00,BKN,,0.00,WeatherDisplay:10.37,2013-09-05 14:38:00,
2013-09-05 10:43:00,61.3,54.7,30.10,NNE,19,5.0,8.1,79,0.00,BKN,,0.00,WeatherDisplay:10.37,2013-09-05 14:43:00,
2013-09-05 10:48:00,61.6,55.0,30.10,NNW,327,5.9,10.4,79,0.00,BKN,,0.00,WeatherDisplay:10.37,2013-09-05 14:48:00,
2013-09-05 10:53:00,61.7,54.8,30.10,NNE,17,5.5,8.1,78,0.00,BKN,,0.00,WeatherDisplay:10.37,2013-09-05 14:53:00,
2013-09-05 10:58:00,61.8,54.5,30.10,North,355,5.6,10.4,77,0.00,BKN,,0.00,WeatherDisplay:10.37,2013-09-05 14:58:00,
2013-09-05 11:03:00,61.5,53.5,30.10,North,355,2.7,6.9,75,0.00,BKN,,0.00,WeatherDisplay:10.37,2013-09-05 15:03:00,
2013-09-05 11:08:00,61.4,53.8,30.10,NNE,28,7.0,10.0,76,0.00,BKN,,0.00,WeatherDisplay:10.37,2013-09-05 15:08:00,
2013-09-05 11:13:00,61.1,53.1,30.10,NNE,32,6.7,9.2,75,0.00,BKN,,0.00,WeatherDisplay:10.37,2013-09-05 15:13:00,
2013-09-05 11:18:00,61.1,53.5,30.10,NNE,25,3.8,8.1,76,0.00,BKN,,0.00,WeatherDisplay:10.37,2013-09-05 15:18:00,
2013-09-05 11:23:00,61.4,53.0,30.10,North,349,6.9,10.4,74,0.00,BKN,,0.00,WeatherDisplay:10.37,2013-09-05 15:23:00,
2013-09-05 11:28:00,61.3,52.9,30.10,NNW,344,6.9,10.4,74,0.00,BKN,,0.00,WeatherDisplay:10.37,2013-09-05 15:28:00,
2013-09-05 11:33:00,61.6,53.6,30.11,NNW,341,3.8,6.9,75,0.00,BKN,,0.00,WeatherDisplay:10.37,2013-09-05 15:33:00,
2013-09-05 11:38:00,61.9,53.1,30.11,North,349,4.7,5.8,73,0.00,BKN,,0.00,WeatherDisplay:10.37,2013-09-05 15:38:00,
2013-09-05 11:43:00,62.2,53.4,30.11,NNE,23,4.4,5.8,73,0.00,BKN,,0.00,WeatherDisplay:10.37,2013-09-05 15:43:00,
2013-09-05 11:48:00,62.1,53.0,30.11,NNE,32,5.4,9.2,72,0.00,BKN,,0.00,WeatherDisplay:10.37,2013-09-05 15:48:00,
2013-09-05 11:53:00,62.0,50.9,30.11,NW,319,7.3,12.7,67,0.00,BKN,,0.00,WeatherDisplay:10.37,2013-09-05 15:53:00,
2013-09-05 11:58:00,62.1,50.6,30.11,NNW,333,5.3,9.2,66,0.00,BKN,,0.00,WeatherDisplay:10.37,2013-09-05 15:58:00,
2013-09-05 12:03:00,62.2,50.3,30.11,North,351,8.8,13.8,65,0.00,SCT,,0.00,WeatherDisplay:10.37,2013-09-05 16:03:00,
2013-09-05 12:08:00,62.4,50.5,30.11,NNE,29,5.3,7.0,65,0.00,SCT,,0.00,WeatherDisplay:10.37,2013-09-05 16:08:00,
2013-09-05 12:13:00,62.6,49.8,30.12,NW,325,6.0,10.4,63,0.00,SCT,,0.00,WeatherDisplay:10.37,2013-09-05 16:13:00,
2013-09-05 12:18:00,62.4,49.6,30.12,NW,314,8.2,11.5,63,0.00,SCT,,0.00,WeatherDisplay:10.37,2013-09-05 16:18:00,
2013-09-05 12:23:00,62.1,49.8,30.12,NNE,18,3.7,9.2,64,0.00,SCT,,0.00,WeatherDisplay:10.37,2013-09-05 16:23:00,
2013-09-05 12:28:00,62.5,50.2,30.13,NNW,330,7.1,11.5,64,0.00,SCT,,0.00,WeatherDisplay:10.37,2013-09-05 16:28:00,
2013-09-05 12:33:00,62.6,49.8,30.12,North,355,6.0,9.2,63,0.00,SCT,,0.00,WeatherDisplay:10.37,2013-09-05 16:33:00,
2013-09-05 12:38:00,62.7,49.9,30.13,North,355,3.9,4.6,63,0.00,SCT,,0.00,WeatherDisplay:10.37,2013-09-05 16:38:00,
2013-09-05 12:43:00,62.3,49.1,30.13,NNW,331,8.2,12.7,62,0.00,SCT,,0.00,WeatherDisplay:10.37,2013-09-05 16:43:00,
2013-09-05 12:48:00,62.1,50.2,30.13,NW,315,6.1,10.4,65,0.00,SCT,,0.00,WeatherDisplay:10.37,2013-09-05 16:48:00,
2013-09-05 12:53:00,62.1,49.8,30.13,NW,316,3.7,8.0,64,0.00,SCT,,0.00,WeatherDisplay:10.37,2013-09-05 16:53:00,
2013-09-05 12:58:00,62.0,48.4,30.13,NNW,348,4.1,8.1,61,0.00,SCT,,0.00,WeatherDisplay:10.37,2013-09-05 16:58:00,
2013-09-05 13:04:00,62.4,48.3,30.13,NW,315,6.0,9.2,60,0.00,FEW,,0.00,WeatherDisplay:10.37,2013-09-05 17:04:00,
2013-09-05 13:09:00,62.6,49.0,30.13,NNW,340,2.0,3.5,61,0.00,FEW,,0.00,WeatherDisplay:10.37,2013-09-05 17:09:00,
2013-09-05 13:14:00,62.9,48.8,30.13,North,355,6.6,9.2,60,0.00,FEW,,0.00,WeatherDisplay:10.37,2013-09-05 17:14:00,
2013-09-05 13:19:00,62.9,47.9,30.13,NNW,345,4.6,10.4,58,0.00,FEW,,0.00,WeatherDisplay:10.37,2013-09-05 17:19:00,
2013-09-05 13:24:00,62.7,47.2,30.13,North,355,4.0,8.1,57,0.00,FEW,,0.00,WeatherDisplay:10.37,2013-09-05 17:24:00,
2013-09-05 13:29:00,62.6,46.7,30.13,NW,320,4.1,11.5,56,0.00,FEW,,0.00,WeatherDisplay:10.37,2013-09-05 17:29:00,
2013-09-05 13:34:00,62.6,47.6,30.14,NW,318,5.2,11.5,58,0.00,FEW,,0.00,WeatherDisplay:10.37,2013-09-05 17:34:00,
2013-09-05 13:39:00,62.9,48.3,30.13,North,5,4.5,8.1,59,0.00,FEW,,0.00,WeatherDisplay:10.37,2013-09-05 17:39:00,
2013-09-05 13:44:00,63.1,48.1,30.13,NW,311,5.8,10.4,58,0.00,FEW,,0.00,WeatherDisplay:10.37,2013-09-05 17:44:00,
2013-09-05 13:49:00,63.2,47.7,30.13,NNW,332,3.0,9.2,57,0.00,FEW,,0.00,WeatherDisplay:10.37,2013-09-05 17:49:00,
2013-09-05 13:54:00,63.2,47.7,30.13,NW,326,5.4,11.0,57,0.00,FEW,,0.00,WeatherDisplay:10.37,2013-09-05 17:54:00,
2013-09-05 13:59:00,63.1,48.5,30.13,NW,323,6.5,11.5,59,0.00,FEW,,0.00,WeatherDisplay:10.37,2013-09-05 17:59:00,
2013-09-05 14:04:00,63.1,48.1,30.14,NNW,341,6.0,10.4,58,0.00,FEW,,0.00,WeatherDisplay:10.37,2013-09-05 18:04:00,
2013-09-05 14:09:00,63.2,47.7,30.13,NW,323,4.2,8.1,57,0.00,FEW,,0.00,WeatherDisplay:10.37,2013-09-05 18:09:00,
2013-09-05 14:14:00,63.3,46.9,30.14,NW,307,4.4,11.5,55,0.00,FEW,,0.00,WeatherDisplay:10.37,2013-09-05 18:14:00,
2013-09-05 14:19:00,63.1,46.7,30.13,WNW,292,6.8,9.2,55,0.00,FEW,,0.00,WeatherDisplay:10.37,2013-09-05 18:19:00,
2013-09-05 14:24:00,63.0,48.0,30.13,NNW,348,4.9,9.2,58,0.00,FEW,,0.00,WeatherDisplay:10.37,2013-09-05 18:24:00,
2013-09-05 14:29:00,63.0,47.1,30.13,WNW,294,1.9,5.8,56,0.00,FEW,,0.00,WeatherDisplay:10.37,2013-09-05 18:29:00,
2013-09-05 14:34:00,63.4,49.3,30.13,NW,325,8.8,9.2,60,0.00,FEW,,0.00,WeatherDisplay:10.37,2013-09-05 18:34:00,
2013-09-05 14:39:00,63.4,47.9,30.13,NNE,28,5.5,9.2,57,0.00,FEW,,0.00,WeatherDisplay:10.37,2013-09-05 18:39:00,
2013-09-05 14:44:00,63.1,46.7,30.13,NNE,15,8.2,9.2,55,0.00,FEW,,0.00,WeatherDisplay:10.37,2013-09-05 18:44:00,
2013-09-05 14:49:00,62.8,47.8,30.13,North,351,5.0,8.0,58,0.00,FEW,,0.00,WeatherDisplay:10.37,2013-09-05 18:49:00,
2013-09-05 14:54:00,62.9,47.9,30.13,NW,319,5.0,8.1,58,0.00,FEW,,0.00,WeatherDisplay:10.37,2013-09-05 18:54:00,
2013-09-05 14:59:00,62.7,49.1,30.13,NNW,347,1.0,7.0,61,0.00,FEW,,0.00,WeatherDisplay:10.37,2013-09-05 18:59:00,
2013-09-05 15:04:00,62.7,48.2,30.13,NNE,13,4.7,9.2,59,0.00,SCT,,0.00,WeatherDisplay:10.37,2013-09-05 19:04:00,
2013-09-05 15:09:00,62.7,47.7,30.13,North,9,3.5,11.5,58,0.00,SCT,,0.00,WeatherDisplay:10.37,2013-09-05 19:09:00,
2013-09-05 15:14:00,62.9,47.9,30.13,NNW,336,5.0,13.0,58,0.00,SCT,,0.00,WeatherDisplay:10.37,2013-09-05 19:14:00,
2013-09-05 15:19:00,62.9,47.0,30.13,NNW,340,4.7,6.9,56,0.00,SCT,,0.00,WeatherDisplay:10.37,2013-09-05 19:19:00,
2013-09-05 15:24:00,63.1,48.1,30.13,NNW,336,3.0,7.0,58,0.00,SCT,,0.00,WeatherDisplay:10.37,2013-09-05 19:24:00,
2013-09-05 15:29:00,63.4,47.9,30.13,NNW,336,7.0,8.0,57,0.00,SCT,,0.00,WeatherDisplay:10.37,2013-09-05 19:29:00,
2013-09-05 15:34:00,63.5,46.6,30.14,North,5,6.3,11.5,54,0.00,SCT,,0.00,WeatherDisplay:10.37,2013-09-05 19:34:00,
2013-09-05 15:39:00,63.4,46.4,30.14,North,2,5.0,10.0,54,0.00,SCT,,0.00,WeatherDisplay:10.37,2013-09-05 19:39:00,
2013-09-05 15:44:00,63.3,46.9,30.14,NNW,338,5.4,5.8,55,0.00,SCT,,0.00,WeatherDisplay:10.37,2013-09-05 19:44:00,
2013-09-05 15:49:00,63.4,46.5,30.13,North,360,5.3,6.9,54,0.00,SCT,,0.00,WeatherDisplay:10.37,2013-09-05 19:49:00,
2013-09-05 15:54:00,63.4,47.0,30.14,NNW,330,6.0,12.0,55,0.00,SCT,,0.00,WeatherDisplay:10.37,2013-09-05 19:54:00,
2013-09-05 15:59:00,63.4,46.5,30.14,NNW,331,2.0,6.9,54,0.00,SCT,,0.00,WeatherDisplay:10.37,2013-09-05 19:59:00,
2013-09-05 16:04:00,63.4,46.0,30.13,North,11,7.8,12.7,53,0.00,SCT,,0.00,WeatherDisplay:10.37,2013-09-05 20:04:00,
2013-09-05 16:09:00,63.0,46.1,30.13,NNW,331,8.3,13.8,54,0.00,SCT,,0.00,WeatherDisplay:10.37,2013-09-05 20:09:00,
2013-09-05 16:14:00,62.8,46.4,30.14,North,355,2.0,7.0,55,0.00,SCT,,0.00,WeatherDisplay:10.37,2013-09-05 20:14:00,
2013-09-05 16:19:00,63.0,47.5,30.14,West,272,6.6,8.1,57,0.00,SCT,,0.00,WeatherDisplay:10.37,2013-09-05 20:19:00,
2013-09-05 16:24:00,62.8,46.3,30.14,WNW,300,6.0,8.0,55,0.00,SCT,,0.00,WeatherDisplay:10.37,2013-09-05 20:24:00,
2013-09-05 16:29:00,63.0,47.5,30.14,North,355,2.9,6.9,57,0.00,SCT,,0.00,WeatherDisplay:10.37,2013-09-05 20:29:00,
2013-09-05 16:34:00,63.1,46.7,30.14,NNW,338,4.9,11.5,55,0.00,SCT,,0.00,WeatherDisplay:10.37,2013-09-05 20:34:00,
2013-09-05 16:39:00,63.0,45.6,30.14,North,355,6.0,9.0,53,0.00,SCT,,0.00,WeatherDisplay:10.37,2013-09-05 20:39:00,
2013-09-05 16:44:00,62.7,45.8,30.14,NW,326,7.2,9.2,54,0.00,SCT,,0.00,WeatherDisplay:10.37,2013-09-05 20:44:00,
2013-09-05 16:49:00,62.7,46.8,30.14,NW,321,3.0,8.0,56,0.00,SCT,,0.00,WeatherDisplay:10.37,2013-09-05 20:49:00,
2013-09-05 16:54:00,62.7,45.3,30.14,NNE,14,1.9,9.2,53,0.00,SCT,,0.00,WeatherDisplay:10.37,2013-09-05 20:54:00,
2013-09-05 16:59:00,62.7,46.8,30.14,NNW,347,1.0,9.0,56,0.00,SCT,,0.00,WeatherDisplay:10.37,2013-09-05 20:59:00,
2013-09-05 17:04:00,62.7,45.8,30.14,NNE,21,4.7,8.1,54,0.00,SCT,,0.00,WeatherDisplay:10.37,2013-09-05 21:04:00,
2013-09-05 17:09:00,62.5,45.6,30.15,North,355,3.7,8.0,54,0.00,SCT,,0.00,WeatherDisplay:10.37,2013-09-05 21:09:00,
2013-09-05 17:14:00,62.4,45.0,30.14,North,9,2.2,8.1,53,0.00,SCT,,0.00,WeatherDisplay:10.37,2013-09-05 21:14:00,
2013-09-05 17:19:00,62.2,44.9,30.14,NNW,334,5.1,8.1,53,0.00,SCT,,0.00,WeatherDisplay:10.37,2013-09-05 21:19:00,
2013-09-05 17:24:00,62.0,45.2,30.14,NNW,345,2.4,5.8,54,0.00,SCT,,0.00,WeatherDisplay:10.37,2013-09-05 21:24:00,
2013-09-05 17:29:00,62.0,43.7,30.15,NW,326,3.9,9.2,51,0.00,SCT,,0.00,WeatherDisplay:10.37,2013-09-05 21:29:00,
2013-09-05 17:34:00,62.0,44.2,30.15,NW,317,6.0,9.2,52,0.00,SCT,,0.00,WeatherDisplay:10.37,2013-09-05 21:34:00,
2013-09-05 17:39:00,62.1,43.7,30.15,NNW,328,0.4,3.0,51,0.00,SCT,,0.00,WeatherDisplay:10.37,2013-09-05 21:39:00,
2013-09-05 17:44:00,62.4,44.5,30.15,NNW,332,1.7,4.6,52,0.00,SCT,,0.00,WeatherDisplay:10.37,2013-09-05 21:44:00,
2013-09-05 17:49:00,62.6,44.7,30.15,NNW,334,3.3,8.1,52,0.00,SCT,,0.00,WeatherDisplay:10.37,2013-09-05 21:49:00,
2013-09-05 17:54:00,62.5,44.6,30.15,NNE,26,1.0,3.5,52,0.00,SCT,,0.00,WeatherDisplay:10.37,2013-09-05 21:54:00,
2013-09-05 17:59:00,62.4,44.0,30.15,NNW,331,5.1,10.4,51,0.00,SCT,,0.00,WeatherDisplay:10.37,2013-09-05 21:59:00,
2013-09-05 18:04:00,62.0,44.2,30.16,NNW,345,1.4,3.5,52,0.00,FEW,,0.00,WeatherDisplay:10.37,2013-09-05 22:04:00,
2013-09-05 18:09:00,61.9,43.6,30.16,NNW,347,0.5,3.0,51,0.00,FEW,,0.00,WeatherDisplay:10.37,2013-09-05 22:09:00,
2013-09-05 18:14:00,61.8,43.5,30.15,North,355,1.9,5.8,51,0.00,FEW,,0.00,WeatherDisplay:10.37,2013-09-05 22:14:00,
2013-09-05 18:19:00,61.7,43.9,30.16,North,355,2.5,6.9,52,0.00,FEW,,0.00,WeatherDisplay:10.37,2013-09-05 22:19:00,
2013-09-05 18:24:00,61.6,44.3,30.15,North,360,0.4,3.0,53,0.00,FEW,,0.00,WeatherDisplay:10.37,2013-09-05 22:24:00,
2013-09-05 18:29:00,61.7,44.4,30.15,NNE,28,1.8,5.8,53,0.00,FEW,,0.00,WeatherDisplay:10.37,2013-09-05 22:29:00,
2013-09-05 18:34:00,61.6,44.3,30.15,North,350,1.4,3.5,53,0.00,FEW,,0.00,WeatherDisplay:10.37,2013-09-05 22:34:00,
2013-09-05 18:39:00,61.4,43.6,30.15,North,355,1.2,3.5,52,0.00,FEW,,0.00,WeatherDisplay:10.37,2013-09-05 22:39:00,
2013-09-05 18:44:00,61.2,43.9,30.15,North,5,0.4,3.5,53,0.00,FEW,,0.00,WeatherDisplay:10.37,2013-09-05 22:44:00,
2013-09-05 18:49:00,61.0,43.7,30.15,NNW,339,1.4,4.6,53,0.00,FEW,,0.00,WeatherDisplay:10.37,2013-09-05 22:49:00,
2013-09-05 18:54:00,60.9,44.1,30.15,North,349,0.8,3.5,54,0.00,FEW,,0.00,WeatherDisplay:10.37,2013-09-05 22:54:00,
2013-09-05 18:59:00,61.0,44.7,30.15,North,350,0.7,2.3,55,0.00,FEW,,0.00,WeatherDisplay:10.37,2013-09-05 22:59:00,
2013-09-05 19:04:00,60.7,43.9,30.15,North,355,2.6,4.6,54,0.00,SCT,,0.00,WeatherDisplay:10.37,2013-09-05 23:04:00,
2013-09-05 19:09:00,60.3,44.1,30.16,North,360,0.0,0.0,55,0.00,SCT,,0.00,WeatherDisplay:10.37,2013-09-05 23:09:00,
2013-09-05 19:14:00,60.1,44.3,30.16,North,360,0.0,0.0,56,0.00,SCT,,0.00,WeatherDisplay:10.37,2013-09-05 23:14:00,
2013-09-05 19:19:00,59.8,48.0,30.16,North,360,0.0,0.0,65,0.00,SCT,,0.00,WeatherDisplay:10.37,2013-09-05 23:19:00,
2013-09-05 19:24:00,59.3,49.5,30.16,North,360,0.0,0.0,70,0.00,SCT,,0.00,WeatherDisplay:10.37,2013-09-05 23:24:00,
2013-09-05 19:29:00,58.7,50.4,30.16,North,360,0.0,0.0,74,0.00,SCT,,0.00,WeatherDisplay:10.37,2013-09-05 23:29:00,
2013-09-05 19:34:00,57.8,49.9,30.16,North,360,0.0,0.0,75,0.00,SCT,,0.00,WeatherDisplay:10.37,2013-09-05 23:34:00,
2013-09-05 19:39:00,56.8,49.3,30.16,North,360,0.0,0.0,76,0.00,SCT,,0.00,WeatherDisplay:10.37,2013-09-05 23:39:00,
2013-09-05 19:44:00,55.9,49.1,30.16,North,360,0.0,0.0,78,0.00,SCT,,0.00,WeatherDisplay:10.37,2013-09-05 23:44:00,
2013-09-05 19:49:00,55.0,48.6,30.16,North,360,0.0,0.0,79,0.00,SCT,,0.00,WeatherDisplay:10.37,2013-09-05 23:49:00,
2013-09-05 19:54:00,54.2,48.2,30.16,North,360,0.0,0.0,80,0.00,SCT,,0.00,WeatherDisplay:10.37,2013-09-05 23:54:00,
2013-09-05 19:59:00,53.6,47.9,30.17,North,360,0.0,0.0,81,0.00,SCT,,0.00,WeatherDisplay:10.37,2013-09-05 23:59:00,
2013-09-05 20:04:00,52.9,47.6,30.17,North,360,0.0,0.0,82,0.00,SCT,,0.00,WeatherDisplay:10.37,2013-09-06 00:04:00,
2013-09-05 20:09:00,52.3,47.3,30.17,North,360,0.0,0.0,83,0.00,SCT,,0.00,WeatherDisplay:10.37,2013-09-06 00:09:00,
2013-09-05 20:14:00,51.7,47.0,30.17,North,360,0.0,0.0,84,0.00,SCT,,0.00,WeatherDisplay:10.37,2013-09-06 00:14:00,
2013-09-05 20:19:00,51.2,46.8,30.17,North,360,0.0,0.0,85,0.00,SCT,,0.00,WeatherDisplay:10.37,2013-09-06 00:19:00,
2013-09-05 20:24:00,50.6,46.3,30.17,North,360,0.0,0.0,85,0.00,SCT,,0.00,WeatherDisplay:10.37,2013-09-06 00:24:00,
2013-09-05 20:29:00,50.2,46.2,30.17,North,360,0.0,0.0,86,0.00,SCT,,0.00,WeatherDisplay:10.37,2013-09-06 00:29:00,
2013-09-05 20:34:00,49.8,45.8,30.18,North,360,0.0,0.0,86,0.00,SCT,,0.00,WeatherDisplay:10.37,2013-09-06 00:34:00,
2013-09-05 20:39:00,49.4,45.7,30.18,North,360,0.0,0.0,87,0.00,SCT,,0.00,WeatherDisplay:10.37,2013-09-06 00:39:00,
2013-09-05 20:44:00,49.1,45.4,30.18,North,360,0.0,0.0,87,0.00,SCT,,0.00,WeatherDisplay:10.37,2013-09-06 00:44:00,
2013-09-05 20:49:00,48.9,45.5,30.18,North,360,0.2,0.0,88,0.00,SCT,,0.00,WeatherDisplay:10.37,2013-09-06 00:49:00,
2013-09-05 20:54:00,48.8,45.7,30.18,North,360,0.0,0.0,89,0.00,SCT,,0.00,WeatherDisplay:10.37,2013-09-06 00:54:00,
2013-09-05 20:59:00,48.7,45.6,30.18,North,360,0.0,0.0,89,0.00,SCT,,0.00,WeatherDisplay:10.37,2013-09-06 00:59:00,
2013-09-05 21:04:00,48.4,45.3,30.18,North,360,0.0,0.0,89,0.00,FEW,,0.00,WeatherDisplay:10.37,2013-09-06 01:04:00,
2013-09-05 21:09:00,48.3,45.2,30.18,North,360,0.0,0.0,89,0.00,FEW,,0.00,WeatherDisplay:10.37,2013-09-06 01:09:00,
2013-09-05 21:14:00,48.2,45.4,30.19,North,360,0.0,0.0,90,0.00,FEW,,0.00,WeatherDisplay:10.37,2013-09-06 01:14:00,
2013-09-05 21:19:00,48.1,45.3,30.19,North,360,0.0,0.0,90,0.00,FEW,,0.00,WeatherDisplay:10.37,2013-09-06 01:19:00,
2013-09-05 21:24:00,48.0,45.2,30.19,North,360,0.0,0.0,90,0.00,FEW,,0.00,WeatherDisplay:10.37,2013-09-06 01:24:00,
2013-09-05 21:29:00,48.0,45.5,30.19,North,360,0.0,0.0,91,0.00,FEW,,0.00,WeatherDisplay:10.37,2013-09-06 01:29:00,
2013-09-05 21:35:00,48.0,45.5,30.19,North,360,0.0,0.0,91,0.00,FEW,,0.00,WeatherDisplay:10.37,2013-09-06 01:35:00,
2013-09-05 21:40:00,47.9,45.4,30.20,North,360,0.0,0.0,91,0.00,FEW,,0.00,WeatherDisplay:10.37,2013-09-06 01:40:00,
2013-09-05 21:45:00,47.8,45.3,30.20,North,360,0.0,0.0,91,0.00,FEW,,0.00,WeatherDisplay:10.37,2013-09-06 01:45:00,
2013-09-05 21:50:00,47.6,45.1,30.20,North,360,0.0,0.0,91,0.00,FEW,,0.00,WeatherDisplay:10.37,2013-09-06 01:50:00,
2013-09-05 21:55:00,47.4,44.9,30.20,North,360,0.0,0.0,91,0.00,FEW,,0.00,WeatherDisplay:10.37,2013-09-06 01:55:00,
2013-09-05 22:00:00,47.4,44.9,30.20,North,360,0.0,0.0,91,0.00,FEW,,0.00,WeatherDisplay:10.37,2013-09-06 02:00:00,
2013-09-05 22:05:00,47.4,45.2,30.20,North,360,0.0,0.0,92,0.00,FEW,,0.00,WeatherDisplay:10.37,2013-09-06 02:05:00,
2013-09-05 22:10:00,47.4,44.9,30.20,North,360,0.0,0.0,91,0.00,FEW,,0.00,WeatherDisplay:10.37,2013-09-06 02:10:00,
2013-09-05 22:15:00,47.3,45.1,30.20,North,360,0.0,0.0,92,0.00,FEW,,0.00,WeatherDisplay:10.37,2013-09-06 02:15:00,
2013-09-05 22:20:00,47.2,45.0,30.20,North,360,0.0,0.0,92,0.00,FEW,,0.00,WeatherDisplay:10.37,2013-09-06 02:20:00,
2013-09-05 22:25:00,47.0,44.8,30.20,North,360,0.0,0.0,92,0.00,FEW,,0.00,WeatherDisplay:10.37,2013-09-06 02:25:00,
2013-09-05 22:30:00,46.8,44.6,30.20,North,360,0.0,0.0,92,0.00,FEW,,0.00,WeatherDisplay:10.37,2013-09-06 02:30:00,
2013-09-05 22:35:00,46.8,44.6,30.20,North,360,0.0,0.0,92,0.00,FEW,,0.00,WeatherDisplay:10.37,2013-09-06 02:35:00,
2013-09-05 22:40:00,46.8,44.6,30.20,North,360,0.0,0.0,92,0.00,FEW,,0.00,WeatherDisplay:10.37,2013-09-06 02:40:00,
2013-09-05 22:45:00,46.9,44.7,30.20,North,360,0.0,0.0,92,0.00,FEW,,0.00,WeatherDisplay:10.37,2013-09-06 02:45:00,
2013-09-05 22:50:00,46.9,44.7,30.20,North,360,0.0,0.0,92,0.00,FEW,,0.00,WeatherDisplay:10.37,2013-09-06 02:50:00,
2013-09-05 22:55:00,47.0,44.8,30.20,North,360,0.0,0.0,92,0.00,FEW,,0.00,WeatherDisplay:10.37,2013-09-06 02:55:00,
2013-09-05 23:00:00,46.9,44.7,30.20,North,360,0.0,0.0,92,0.00,FEW,,0.00,WeatherDisplay:10.37,2013-09-06 03:00:00,
2013-09-05 23:05:00,46.9,44.7,30.20,North,360,0.0,0.0,92,0.00,FEW,,0.00,WeatherDisplay:10.37,2013-09-06 03:05:00,
2013-09-05 23:10:00,46.8,44.6,30.20,North,360,0.0,0.0,92,0.00,FEW,,0.00,WeatherDisplay:10.37,2013-09-06 03:10:00,
2013-09-05 23:15:00,46.7,44.5,30.20,North,360,0.0,0.0,92,0.00,FEW,,0.00,WeatherDisplay:10.37,2013-09-06 03:15:00,
2013-09-05 23:20:00,46.5,44.3,30.20,North,360,0.0,0.0,92,0.00,FEW,,0.00,WeatherDisplay:10.37,2013-09-06 03:20:00,
2013-09-05 23:25:00,46.6,44.4,30.20,North,360,0.0,0.0,92,0.00,FEW,,0.00,WeatherDisplay:10.37,2013-09-06 03:25:00,
2013-09-05 23:30:00,46.7,44.8,30.20,North,360,0.0,0.0,93,0.00,FEW,,0.00,WeatherDisplay:10.37,2013-09-06 03:30:00,
2013-09-05 23:35:00,46.7,44.8,30.20,North,360,0.0,0.0,93,0.00,FEW,,0.00,WeatherDisplay:10.37,2013-09-06 03:35:00,
2013-09-05 23:40:00,46.7,44.8,30.20,North,360,0.0,0.0,93,0.00,FEW,,0.00,WeatherDisplay:10.37,2013-09-06 03:40:00,
2013-09-05 23:45:00,46.6,44.7,30.20,North,360,0.0,0.0,93,0.00,FEW,,0.00,WeatherDisplay:10.37,2013-09-06 03:45:00,
2013-09-05 23:50:00,46.6,44.7,30.20,North,360,0.0,0.0,93,0.00,FEW,,0.00,WeatherDisplay:10.37,2013-09-06 03:50:00,
2013-09-05 23:55:00,46.6,44.7,30.20,North,360,0.0,0.0,93,0.00,FEW,,0.00,WeatherDisplay:10.37,2013-09-06 03:55:00,